Location: Bun Machan
(52.1403°N, 7.3744°W)
Time: 16:21:01
(UTC+00:00)

X-37B - Pass Details

Date: 28 June 2021
Orbit: 383 x 392 km, 45.0° (Epoch: 01 July)

Event Time Altitude Azimuth Distance (km) Brightness Sun altitude
Rises 22:01:11 0° 252° (WSW) 2,257 4.7 -7.7°
Reaches altitude 10° 22:03:30 10° 236° (WSW) 1,403 3.4 -7.9°
Maximum altitude 22:06:02 22° 183° (S) 889 2.0 -8.1°
Enters shadow 22:08:22 11° 132° (SE) 1,336 2.7 -8.3°
